Location: Goudex
(43.3760°N, 0.9543°E)
Time: 00:04:30
(UTC+00:00)

Cosmos 1408 - Pass Details

Date: 20 November 2019
Orbit: 470 x 497 km, 82.6° (Epoch: 08 December)

Event Time Altitude Azimuth Distance (km) Brightness Sun altitude
Rises 05:25:44 0° 206° (SSW) 2,560 6.1 -16.2°
Reaches altitude 10° 05:27:57 10° 216° (SW) 1,680 5.1 -15.8°
Maximum altitude 05:31:21 35° 283° (WNW) 816 3.1 -15.2°
Drops below altitude 10° 05:34:44 10° 350° (N) 1,679 5.1 -14.6°
Sets 05:36:58 0° 360° (N) 2,560 6.1 -14.2°
